Location: Erdweis
(48.5167°N, 15.3500°E)
Time: 10:55:33
(UTC+00:00)

USA 238 - Pass Details

Date: 18 September 2020
Orbit: 1006 x 1206 km, 63.4° (Epoch: 15 October)

Event Time Altitude Azimuth Distance (km) Brightness Sun altitude
Rises 17:41:59 0° 316° (NW) 3,907 7.6 -7.0°
Reaches altitude 10° 17:44:45 10° 322° (NW) 2,977 6.8 -7.5°
Maximum altitude 17:51:34 46° 35° (NE) 1,497 4.3 -8.6°
Enters shadow 17:58:17 12° 107° (ESE) 2,974 5.3 -9.7°
